Location: Lane
(33.5226°N, 79.8788°W)
Time: 10:50:38
(UTC+00:00)

Altair - Pass Details

Date: 04 October 2022
Orbit: 1501 x 1682 km, 47.2° (Epoch: 30 November)

Event Time Altitude Azimuth Distance (km) Brightness Sun altitude
Rises 18:21:36 0° 296° (WNW) 4,933 10.2 48.1°
Reaches altitude 10° 18:25:30 10° 284° (WNW) 3,944 9.9 47.8°
Maximum altitude 18:33:10 25° 235° (SW) 2,903 10.3 46.9°
Drops below altitude 10° 18:40:46 10° 184° (S) 3,888 10.4 46.1°
Sets 18:44:38 0° 172° (S) 4,848 10.6 45.6°
